Weather History for KMFI - January, 2013

Change the Weather History Date:

Monday, January 21, 2013

  Actual Average Record
Temperature  
Mean Temperature -4 °F -  
Max Temperature 1 °F 26 °F 43 °F (1964)
Min Temperature -11 °F 6 °F -35 °F (1924)
Degree Days  
Heating Degree Days 69    
Moisture  
Dew Point -14 °F    
Average Humidity 68    
Maximum Humidity 78    
Minimum Humidity 56    
Precipitation  
Precipitation 0.00 in - - ()
Sea Level Pressure  
Sea Level Pressure 30.17 in    
Wind  
Wind Speed 14 mph (WNW)    
Max Wind Speed 22 mph    
Max Gust Speed 29 mph    
Visibility 7 miles    
Events Snow    
Averages and records for this station are not official NWS values.
T = Trace of Precipitation, MM = Missing Value Source: NWS Daily Summary

Daily Weather History Graph

Daily Weather History Graph

Search for Another Location

Airport or City:

Trip Planner

Search our weather history database for the weather conditions in past years. The results will help you decide how hot, cold, wet, or windy it might be!

Date:

Astronomy

Jan. 21, 2013 Rise Set
Actual Time 7:30 AM CST 4:54 PM CST
Civil Twilight 6:58 AM CST 5:26 PM CST
Nautical Twilight 6:22 AM CST 6:02 PM CST
Astronomical Twilight 5:47 AM CST 6:37 PM CST
Moon 12:33 PM CST (1/21) 2:58 AM CST (1/21)
Length of Visible Light 10h 28m
Length of Day
9h 24m
Waxing Gibbous, 75% of the Moon is Illuminated
Jan 21
Waxing Gibbous
Jan 26
Full
Feb 3
Last Quarter
Feb 10
New
Feb 17
First Quarter

Hourly Weather History & Observations

Time (CST) Temp. Windchill Dew Point Humidity Pressure Visibility Wind Dir Wind Speed Gust Speed Precip Events Conditions
12:54 AM -0.0 °F -13.0 °F -6.0 °F 76% 30.19 in 10.0 mi WNW 6.9 mph - N/A   Mostly Cloudy
1:54 AM 1.0 °F -14.0 °F -5.1 °F 75% 30.18 in 4.0 mi NW 9.2 mph - 0.00 in Snow Light Snow
2:07 AM 1.4 °F -12.5 °F -4.0 °F 78% 30.08 in 2.0 mi West 8.1 mph - 0.00 in Snow Light Snow
2:17 AM 1.4 °F -15.3 °F -5.8 °F 72% 30.08 in 7.0 mi WNW 11.5 mph - 0.00 in   Overcast
2:54 AM -0.9 °F -20.6 °F -7.1 °F 75% 30.18 in 6.0 mi WNW 15.0 mph - 0.00 in   Haze
3:11 AM -0.4 °F -16.7 °F -5.8 °F 78% 30.08 in 1.8 mi WNW 10.4 mph - 0.00 in Snow Light Snow
3:23 AM -0.4 °F -20.5 °F -7.6 °F 72% 30.08 in 3.0 mi WNW 16.1 mph - 0.00 in Snow Light Snow
3:50 AM -2.2 °F -22.9 °F -9.4 °F 71% 30.08 in 9.0 mi WNW 16.1 mph 23.0 mph 0.00 in   Overcast
3:54 AM -2.9 °F -23.1 °F -9.0 °F 75% 30.18 in 8.0 mi WNW 15.0 mph 23.0 mph 0.00 in   Overcast
4:14 AM -2.2 °F -20.7 °F -9.4 °F 71% 30.08 in 8.0 mi NW 12.7 mph 25.3 mph N/A   Mostly Cloudy
4:23 AM -4.0 °F -23.7 °F -9.4 °F 78% 30.08 in 9.0 mi WNW 13.8 mph - N/A   Mostly Cloudy
4:54 AM -5.1 °F -24.3 °F -11.0 °F 76% 30.19 in 10.0 mi WNW 12.7 mph 26.5 mph N/A   Scattered Clouds
5:36 AM -5.8 °F -30.5 °F -13.0 °F 71% 30.09 in 8.0 mi NW 21.9 mph 26.5 mph N/A   Mostly Cloudy
5:54 AM -6.0 °F -30.7 °F -14.1 °F 68% 30.20 in 7.0 mi WNW 21.9 mph - N/A   Overcast
6:44 AM -7.6 °F -31.1 °F -13.0 °F 77% 30.09 in 1.0 mi NW 18.4 mph - 0.00 in Snow Light Snow
6:54 AM -8.0 °F -31.0 °F -14.1 °F 75% 30.21 in 2.0 mi NW 17.3 mph - 0.00 in Snow Light Snow
7:02 AM -7.6 °F -29.1 °F -14.8 °F 71% 30.10 in 4.0 mi NW 15.0 mph - 0.00 in   Haze
7:13 AM -7.6 °F -29.8 °F -14.8 °F 71% 30.10 in 6.0 mi NW 16.1 mph - 0.00 in   Haze
7:24 AM -7.6 °F -30.5 °F -14.8 °F 71% 30.10 in 3.0 mi NW 17.3 mph - 0.00 in Snow Light Snow
7:26 AM -7.6 °F -27.5 °F -14.8 °F 71% 30.11 in 2.5 mi NW 12.7 mph - 0.00 in Snow Light Snow
7:31 AM -7.6 °F -29.1 °F -14.8 °F 71% 30.10 in 1.8 mi NW 15.0 mph - 0.00 in Snow Light Snow
7:35 AM -7.6 °F -29.1 °F -14.8 °F 71% 30.10 in 2.0 mi WNW 15.0 mph 20.7 mph 0.00 in Snow Light Snow
7:39 AM -7.6 °F -29.8 °F -14.8 °F 71% 30.11 in 3.0 mi WNW 16.1 mph - 0.00 in   Haze
7:54 AM -8.0 °F -30.3 °F -16.1 °F 68% 30.22 in 3.0 mi WNW 16.1 mph - 0.00 in Snow Light Snow
8:52 AM -7.6 °F -31.7 °F -18.4 °F 59% 30.13 in 10.0 mi WNW 19.6 mph 26.5 mph 0.00 in   Scattered Clouds
8:54 AM -8.0 °F -32.2 °F -18.0 °F 61% 30.25 in 10.0 mi WNW 19.6 mph 26.5 mph 0.00 in   Partly Cloudy
9:27 AM -7.6 °F -29.8 °F -16.6 °F 65% 30.14 in 9.0 mi NW 16.1 mph 25.3 mph N/A   Mostly Cloudy
9:54 AM -8.0 °F -31.6 °F -16.1 °F 68% 30.26 in 4.0 mi WNW 18.4 mph 25.3 mph N/A   Haze
10:14 AM -7.6 °F -32.3 °F -16.6 °F 65% 30.14 in 1.8 mi NW 20.7 mph 25.3 mph 0.00 in Snow Light Snow
10:24 AM -9.4 °F -32.8 °F -16.6 °F 71% 30.15 in 2.5 mi NW 17.3 mph 28.8 mph 0.00 in Snow Light Snow
10:37 AM -7.6 °F -30.5 °F -16.6 °F 65% 30.15 in 1.2 mi WNW 17.3 mph 24.2 mph 0.00 in Snow Light Snow
10:51 AM -7.6 °F -30.5 °F -16.6 °F 65% 30.15 in 3.0 mi NW 17.3 mph 26.5 mph 0.00 in Snow Light Snow
10:54 AM -8.0 °F -31.0 °F -17.0 °F 65% 30.27 in 3.0 mi WNW 17.3 mph 27.6 mph 0.00 in   Haze
11:54 AM -8.0 °F -32.2 °F -18.0 °F 61% 30.26 in 10.0 mi WNW 19.6 mph 26.5 mph N/A   Overcast
12:54 PM -7.1 °F -31.6 °F -18.0 °F 59% 30.24 in 10.0 mi NW 20.7 mph 26.5 mph N/A   Overcast
1:54 PM -6.0 °F -29.0 °F -17.0 °F 59% 30.24 in 10.0 mi WNW 18.4 mph 25.3 mph N/A   Overcast
2:54 PM -6.0 °F -27.7 °F -18.0 °F 56% 30.24 in 10.0 mi NW 16.1 mph 23.0 mph N/A   Mostly Cloudy
3:54 PM -7.1 °F -26.8 °F -18.0 °F 59% 30.25 in 10.0 mi WNW 12.7 mph 21.9 mph N/A   Mostly Cloudy
4:46 PM -7.6 °F -28.3 °F -18.4 °F 59% 30.13 in 10.0 mi WNW 13.8 mph - N/A   Partly Cloudy
4:54 PM -8.0 °F -28.0 °F -18.0 °F 61% 30.26 in 10.0 mi WNW 12.7 mph - N/A   Scattered Clouds
5:03 PM -7.6 °F -29.8 °F -18.4 °F 59% 30.13 in 10.0 mi WNW 16.1 mph 21.9 mph N/A   Mostly Cloudy
5:23 PM -7.6 °F -27.5 °F -18.4 °F 59% 30.13 in 10.0 mi WNW 12.7 mph - N/A   Scattered Clouds
5:31 PM -7.6 °F -27.5 °F -18.4 °F 59% 30.13 in 10.0 mi WNW 12.7 mph - N/A   Mostly Cloudy
5:51 PM -9.4 °F -28.9 °F -16.6 °F 71% 30.14 in 10.0 mi WNW 11.5 mph - N/A   Scattered Clouds
5:54 PM -9.0 °F -28.4 °F -17.0 °F 68% 30.27 in 10.0 mi WNW 11.5 mph - N/A   Scattered Clouds
6:54 PM -9.0 °F -28.4 °F -18.0 °F 65% 30.28 in 10.0 mi WNW 11.5 mph - N/A   Clear
7:54 PM -9.0 °F -30.2 °F -18.0 °F 65% 30.29 in 10.0 mi WNW 13.8 mph - N/A   Clear
8:54 PM -9.9 °F -28.6 °F -18.0 °F 68% 30.30 in 10.0 mi NW 10.4 mph - N/A   Clear
9:54 PM -9.9 °F -28.6 °F -18.0 °F 68% 30.32 in 10.0 mi NW 10.4 mph - N/A   Clear
10:54 PM -9.9 °F -26.3 °F -18.0 °F 68% 30.32 in 10.0 mi WNW 8.1 mph - N/A   Clear
11:54 PM -11.0 °F -28.8 °F -18.0 °F 71% 30.32 in 10.0 mi NW 9.2 mph - N/A   Clear